[[{"header":{"parameterUnit":"m.s-1","parameterCategory":1,"la1":30.2991,"la2":30.254,"lo1":-89.0895,"lo2":-89.0444,"dy":0.0017,"dx":0.0017,"nx":28,"ny":28,"refTime":"2025-06-09T03:00:00:Z","depth":0,"parameterNumber":2,"parameterNumberName":"U-component_of_WINDS"},"data":[0,0,0,0,0,0,0,0,0,0,0,0,0,0,0,0,0,0,0,0,0,0,0,0,0,0,0,0,0,0,0,0,0,0,0,0,0,0,0,0,0,0,0,0,0,0,0,0,0,0,0,0,0,0,0,0,0,0,3.591,3.591,0,3.5888,3.5888,3.5888,3.577,3.5767,3.5764,3.5761,3.5744,3.5746,3.5748,0,0,0,0,0,0,0,0,0,0,0,0,0,3.5855,3.5857,3.591,3.591,3.591,3.5888,3.5888,3.5888,3.577,3.5767,3.5763,3.576,3.5743,3.5746,3.5748,0,0,0,0,0,0,0,0,0,0,0,0,0,3.5861,3.5857,3.591,3.5848,3.5842,3.5889,3.5888,3.5888,3.5771,3.5767,3.5762,3.5759,3.5742,3.5746,3.5749,3.5854,0,0,3.5759,3.576,0,0,0,0,0,0,0,0,3.5861,3.5863,3.5858,3.5853,3.5846,3.5827,3.5862,3.5877,3.5772,3.5798,3.5761,3.5756,3.5775,3.5776,3.5781,3.5853,3.5852,3.5759,3.5761,3.5762,3.5763,0,0,0,0,0,0,0,3.586,3.5863,3.5902,3.5858,3.5851,3.5823,3.5819,3.5864,3.5811,3.5796,3.5787,3.5786,3.5772,3.5778,3.578,3.5852,3.5759,3.5762,3.5764,3.5765,3.601,3.6015,0,0,0,0,0,0,3.5868,3.5864,3.5902,3.5901,3.5843,3.5828,3.5823,3.5838,3.581,3.5802,3.579,3.578,3.5775,3.5776,3.5779,3.5899,3.5762,3.5765,3.5767,3.6006,3.6011,3.6016,0,0,0,0,0,0,3.5867,3.5873,3.5903,3.588,3.5882,3.5833,3.585,3.584,3.5846,3.5806,3.5796,3.5806,3.5771,3.5774,3.5836,3.5897,3.5767,3.577,3.6,3.6007,3.6014,3.6143,0,0,0,0,0,0,3.5866,3.5873,3.5911,3.5882,3.5883,3.5959,3.5854,3.5842,3.5851,3.5839,3.5818,3.5811,3.5768,3.5832,3.5839,3.5899,3.5772,3.5995,3.6004,3.6012,3.6133,3.6153,3.6171,0,0,0,0,0,3.5865,3.5949,3.5914,3.5919,3.593,3.5963,3.5964,3.5912,3.5857,3.5895,3.587,3.5811,3.589,3.5839,3.5846,3.5909,3.599,3.6001,3.6011,3.6124,3.6149,3.617,0,0,0,0,0,0,3.5988,3.5944,3.5904,3.5981,3.5977,3.5943,3.599,3.594,3.5952,3.5941,3.5878,3.5874,3.5945,3.5933,3.5877,3.601,3.593,3.5943,3.6014,3.6037,3.6056,3.6057,3.5775,0,0,0,0,0,3.6024,3.6054,3.6014,3.6086,3.6086,3.6039,3.6052,3.6012,3.6005,3.6003,3.5982,3.5979,3.6003,3.602,3.604,3.6132,3.6125,3.6178,3.6197,3.6213,3.6224,3.6271,3.6294,3.605,3.605,3.605,0,0,3.6099,3.6079,3.6101,3.6111,3.6102,3.6135,3.6038,3.6077,3.6101,3.6009,3.6065,3.6051,3.6043,3.6121,3.6154,3.6113,3.629,3.6226,3.6239,3.6241,3.6284,3.6308,3.6328,3.6057,3.6056,3.6054,0,0,3.6252,3.624,3.6298,3.6292,3.6281,3.6249,3.6264,3.6238,3.6224,3.6279,3.6211,3.624,3.6283,3.628,3.6285,3.6439,3.6386,3.6448,3.6546,3.6594,3.6613,3.6629,3.6684,3.6704,3.6459,3.646,3.646,0,3.6347,3.6392,3.6335,3.6378,3.6385,3.6303,3.6362,3.636,3.6357,3.6364,3.6318,3.637,3.6359,3.6435,3.6473,3.6479,3.6494,3.6449,3.6614,3.6631,3.6645,3.6697,3.6717,3.6467,3.6466,3.6466,3.6465,0,3.6509,3.6542,3.6591,3.6588,3.6601,3.6652,3.6604,3.6624,3.6585,3.6559,3.6617,3.6602,3.6617,3.6633,3.6595,3.6704,3.6679,3.6625,3.6544,3.6677,3.6724,3.6743,3.6478,3.6475,3.6473,3.6471,0,0,3.6737,3.6703,3.6721,3.6719,3.6702,3.6727,3.6776,3.6789,3.6807,3.6809,3.6849,3.6887,3.6838,3.6843,3.6805,3.6847,3.697,3.6788,3.6787,3.6821,3.7088,3.7127,3.715,3.6935,3.6939,3.6942,3.7088,0,3.6882,3.6961,3.6912,3.6999,3.7029,3.6953,3.6996,3.6991,3.6969,3.6993,3.6969,3.6997,3.6929,3.6932,3.697,3.6947,3.7022,3.6936,3.6972,3.6974,3.6974,3.7175,3.7216,3.7355,3.7106,3.7109,3.7112,0,3.7061,3.7069,3.7159,3.7136,3.7147,3.7186,3.7194,3.7218,3.7212,3.7193,3.72,3.7151,3.7199,3.7121,3.7187,3.7129,3.7142,3.7133,3.7137,3.7136,3.7049,3.7179,3.7398,3.7418,3.714,3.7138,3.7136,0,3.7216,3.725,3.7308,3.7309,3.7284,3.7313,3.7304,3.7293,3.7305,3.7314,3.7321,3.7337,3.7345,3.7359,3.7317,3.7264,3.7389,3.7307,3.7374,3.7376,3.7402,3.74,3.7624,3.7414,3.7413,3.7413,3.7413,0,3.7382,3.744,3.7377,3.7413,3.7476,3.7421,3.7485,3.7469,3.746,3.7492,3.7429,3.7461,3.7404,3.7431,3.74,3.7458,3.7463,3.745,3.744,3.7454,3.7456,3.746,3.7449,3.7418,3.7417,3.7416,3.7415,0,3.7565,3.7525,3.7583,3.7555,3.755,3.7598,3.7574,3.7607,3.7581,3.7623,3.763,3.759,3.7618,3.7578,3.7603,3.7582,3.7662,3.7639,3.7664,3.7656,3.7726,3.7719,3.7959,3.7987,3.776,3.7762,3.7764,0,3.7672,3.7715,3.7692,3.7708,3.7702,3.773,3.7741,3.769,3.7705,3.7702,3.7735,3.7758,3.7773,3.7823,3.7797,3.7816,3.7792,3.7875,3.7794,3.7807,3.7791,3.7789,3.7792,3.789,3.7893,3.7895,3.7897,0,3.7867,3.7845,3.7863,3.7876,3.7891,3.7898,3.7901,3.7919,3.7865,3.7886,3.7913,3.7925,3.795,3.7974,3.7986,3.7979,3.793,3.7923,3.7939,3.7953,3.7965,3.7958,3.7707,3.7917,3.7915,3.7914,3.7913,3.7912,3.8014,3.8048,3.8037,3.806,3.8057,3.8061,3.809,3.8069,3.809,3.8105,3.8075,3.811,3.8105,3.8116,3.8114,3.8142,3.8106,3.8131,3.8136,3.8143,3.8153,3.7963,3.8145,3.8144,3.8144,3.8143,3.8143,0,3.8203,3.8193,3.8215,3.822,3.8239,3.8191,3.8192,3.8211,3.8243,3.8241,3.8257,3.829,3.8313,3.829,3.8309,3.8336,3.8314,3.8343,3.8339,3.8338,3.8184,3.8167,3.836,3.836,3.836,3.836,3.836,3.836,3.8304,3.8359,3.8337,3.8391,3.838,3.8413,3.8418,3.8423,3.8421,3.846,3.8478,3.8463,3.8453,3.8471,3.8491,3.8484,3.8493,3.853,3.8515,3.8371,3.8349,3.8329,3.8312,3.8533,3.8533,3.8666,3.8667,3.8668]},{"header":{"parameterUnit":"m.s-1","parameterCategory":1,"la1":30.2991,"la2":30.254,"lo1":-89.0895,"lo2":-89.0444,"dy":0.0017,"dx":0.0017,"nx":28,"ny":28,"refTime":"2025-06-09T03:00:00:Z","depth":0,"parameterNumber":3,"parameterNumberName":"V-component_of_WINDS"},"data":[0,0,0,0,0,0,0,0,0,0,0,0,0,0,0,0,0,0,0,0,0,0,0,0,0,0,0,0,0,0,0,0,0,0,0,0,0,0,0,0,0,0,0,0,0,0,0,0,0,0,0,0,0,0,0,0,0,0,6.9969,6.9971,0,7.0196,7.0199,7.0201,7.0202,7.0199,7.0197,7.0194,7.0416,7.0424,7.0433,0,0,0,0,0,0,0,0,0,0,0,0,0,6.9524,6.9533,6.9968,6.9971,6.9974,7.0196,7.0199,7.0202,7.0203,7.0199,7.0196,7.0193,7.0413,7.0423,7.0433,0,0,0,0,0,0,0,0,0,0,0,0,0,6.9731,6.9535,6.9968,7.0002,7.0007,7.0195,7.0199,7.0203,7.0204,7.0199,7.0195,7.0191,7.041,7.0422,7.0435,7.0601,0,0,7.0474,7.048,0,0,0,0,0,0,0,0,6.9719,6.9747,6.9994,7.0,7.0006,7.0167,7.0124,7.0336,7.0205,7.0129,7.0194,7.0189,7.0336,7.0354,7.0406,7.0611,7.0621,7.0475,7.0483,7.0489,7.0492,0,0,0,0,0,0,0,6.9705,6.9737,7.0058,6.9997,7.0005,7.0002,7.0026,7.0164,7.0253,7.0135,7.0136,7.0163,7.0338,7.0394,7.0411,7.0624,7.0475,7.0486,7.0494,7.0499,7.0976,7.098,0,0,0,0,0,0,6.9685,6.9725,7.0051,7.0065,6.9849,7.0013,7.0041,7.0119,7.0252,7.0268,7.0166,7.0162,7.0374,7.0396,7.0419,7.0622,7.0489,7.0501,7.0508,7.0971,7.0977,7.0982,0,0,0,0,0,0,6.9676,6.9714,7.0042,6.9896,6.9937,7.0026,7.0114,7.0126,7.0182,7.0276,7.0291,7.0208,7.0371,7.0401,7.0556,7.063,7.0507,7.0518,7.0965,7.0973,7.0979,7.1029,0,0,0,0,0,0,6.9663,6.9711,6.9778,6.9897,6.9945,7.0179,7.0118,7.0134,7.0205,7.0202,7.0319,7.0333,7.037,7.0537,7.0569,7.0645,7.0528,7.0959,7.0968,7.0977,7.1021,7.1038,7.1051,0,0,0,0,0,6.9647,6.978,6.9781,6.982,7.0031,7.0183,7.021,7.0252,7.0211,7.0277,7.0338,7.033,7.0617,7.0553,7.0589,7.067,7.0954,7.0966,7.0976,7.1015,7.1034,7.1051,0,0,0,0,0,0,6.9663,6.9797,6.9799,6.9975,7.0068,7.0183,7.0268,7.0272,7.0375,7.0367,7.0412,7.0439,7.0593,7.0647,7.0574,7.0837,7.078,7.0799,7.0797,7.0816,7.0831,7.0814,7.0539,0,0,0,0,0,6.9688,6.9804,6.9913,7.0058,7.0105,7.0178,7.0246,7.0271,7.0368,7.0406,7.0477,7.0568,7.0679,7.075,7.0857,7.1029,7.1053,7.1102,7.1117,7.1129,7.1144,7.1238,7.1261,7.1018,7.1018,7.1018,0,0,6.9739,6.9826,6.9896,7.0063,7.0138,7.0254,7.0211,7.0335,7.0421,7.0423,7.0576,7.0631,7.0735,7.0899,7.0975,7.0949,7.1217,7.1143,7.1152,7.1161,7.1252,7.1275,7.1295,7.1026,7.1024,7.1023,0,0,6.9891,6.997,7.0099,7.0176,7.0291,7.034,7.037,7.0485,7.0523,7.0678,7.0682,7.0782,7.0972,7.1046,7.1108,7.1288,7.1284,7.1321,7.1398,7.1489,7.1508,7.1525,7.1589,7.1611,7.1336,7.1337,7.1337,0,6.9939,7.0118,7.0164,7.029,7.0363,7.0374,7.0504,7.0574,7.0717,7.0765,7.0734,7.0973,7.1044,7.1225,7.1269,7.132,7.1354,7.1308,7.1503,7.152,7.1537,7.1597,7.1621,7.134,7.134,7.1339,7.1339,0,7.017,7.0293,7.0384,7.0526,7.0608,7.0734,7.0797,7.0874,7.0892,7.0942,7.1098,7.1183,7.1308,7.1352,7.1369,7.1536,7.1516,7.1494,7.1437,7.1563,7.162,7.1644,7.1346,7.1344,7.1343,7.1342,0,0,7.0338,7.0506,7.0538,7.0602,7.073,7.0825,7.095,7.1076,7.114,7.1238,7.1343,7.1503,7.1484,7.1555,7.158,7.1659,7.1796,7.1627,7.163,7.1655,7.1983,7.1998,7.2025,7.1794,7.1799,7.1802,7.1973,0,7.0504,7.0733,7.0778,7.0975,7.1088,7.1101,7.121,7.1298,7.1348,7.1449,7.1502,7.1615,7.1581,7.1624,7.1704,7.1762,7.1862,7.175,7.1889,7.1893,7.1862,7.2055,7.2073,7.223,7.1996,7.2,7.2003,0,7.0728,7.0835,7.1044,7.1157,7.1206,7.1305,7.1423,7.152,7.1619,7.1649,7.1729,7.1746,7.1873,7.1811,7.1986,7.191,7.1968,7.2005,7.2012,7.2026,7.1955,7.2073,7.2281,7.2305,7.2039,7.2036,7.2034,0,7.0829,7.1025,7.1176,7.123,7.1366,7.1434,7.1493,7.1589,7.1661,7.1763,7.1809,7.1923,7.1985,7.2071,7.2116,7.2067,7.2288,7.2229,7.2314,7.2313,7.2359,7.2356,7.2579,7.2399,7.2398,7.2398,7.2397,0,7.1008,7.1135,7.1223,7.1315,7.1457,7.1507,7.1645,7.1702,7.1787,7.1888,7.1904,7.1998,7.2053,7.2153,7.2189,7.2328,7.2355,7.2381,7.2389,7.238,7.2376,7.2418,7.2408,7.2404,7.2403,7.2401,7.24,0,7.1145,7.1209,7.1374,7.149,7.1522,7.1621,7.1718,7.1807,7.1857,7.1985,7.2017,7.2095,7.2214,7.2269,7.2415,7.2439,7.2596,7.2597,7.2564,7.2567,7.2648,7.2639,7.2906,7.2943,7.2738,7.274,7.2742,0,7.1255,7.1354,7.1482,7.1553,7.1615,7.1728,7.1803,7.1854,7.1931,7.2051,7.2124,7.2245,7.2345,7.2534,7.2601,7.2712,7.2715,7.2801,7.2732,7.2719,7.2715,7.2709,7.2718,7.2813,7.2815,7.2816,7.2818,0,7.1444,7.1471,7.158,7.1701,7.1791,7.1887,7.1981,7.2037,7.2103,7.2187,7.2312,7.2389,7.254,7.2659,7.2775,7.2831,7.2835,7.2839,7.2865,7.2856,7.2833,7.2845,7.2598,7.2833,7.2831,7.283,7.2829,7.2829,7.157,7.1658,7.1763,7.1883,7.196,7.2048,7.2137,7.22,7.2306,7.2436,7.2458,7.259,7.2685,7.2842,7.2903,7.3004,7.2983,7.302,7.3029,7.3037,7.3042,7.2818,7.3025,7.3025,7.3024,7.3024,7.3024,0,7.1759,7.1827,7.1938,7.2071,7.2165,7.2165,7.2269,7.2346,7.2464,7.2554,7.2653,7.2794,7.291,7.2986,7.3102,7.3168,7.3173,7.3197,7.3192,7.3204,7.3054,7.3021,7.3191,7.3191,7.3191,7.3191,7.3191,7.3191,7.1868,7.2018,7.2057,7.2243,7.2309,7.2442,7.2501,7.2581,7.2654,7.2813,7.291,7.2961,7.3045,7.3167,7.3271,7.3291,7.3332,7.3357,7.3375,7.3233,7.3215,7.3198,7.3167,7.3366,7.3366,7.3517,7.3518,7.3519]}]]